CAPE
0 0 0 0 0 0 2 3 0 31 43 33 43 60 73 80 67 82 93 81 76 108 111 87 112 102 203
0 0 0 0 0 0 1 17 7 19 31 32 15 29 47 66 60 72 89 99 102 100 103 79 32 27 75
0 0 0 0 0 0 1 0 0 2 13 30 49 58 71 70 74 70 91 29 34 20 36 28 44 70 101
12 1 0 0 0 5 0 0 0 1 4 31 46 20 54 57 44 58 39 43 46 59 56 30 55 33 45
0 0 15 8 0 0 0 0 0 0 2 0 1 0 0 2 11 22 47 86 53 66 72 46 22 11 15
31 8 2 1 0 0 0 0 10 0 0 0 0 0 0 14 21 73 61 39 42 54 44 47 12 13 5
0 0 14 21 0 14 26 34 4 1 3 11 5 3 1 4 24 29 52 56 24 42 47 43 24 22 16
7 25 30 21 19 16 5 0 1 7 11 25 0 0 0 21 38 20 35 49 96 68 35 42 28 22 12
84 80 34 31 29 7 0 13 4 6 3 6 0 2 1 1 0 36 74 16 9 16 18 15 11 9 5
0 0 0 0 26 15 14 12 5 3 0 0 0 2 5 0 0 0 0 23 18 13 13 11 12 1 0
0 0 0 2 13 7 6 2 0 0 0 3 0 0 1 0 0 0 0 0 0 0 11 24 15 5 0
0 3 4 0 0 0 0 0 0 1 0 0 0 0 0 0 0 0 0 0 0 0 0 4 7 12 6
11 2 2 0 0 0 0 0 0 0 0 0 8 0 0 0 0 0 1 0 0 0 0 0 0 0 1
9 3 0 0 0 0 0 0 0 0 0 0 0 0 0 0 0 0 0 0 0 0 0 0 0 0 0
3 1 2 0 0 0 0 0 2 1 0 0 0 0 0 0 0 0 0 0 0 0 0 0 0 0 0
0 0 0 0 0 0 0 0 0 0 0 0 0 0 0 0 2 0 0 0 0 0 0 0 0 0 2
0 0 0 0 0 0 0 0 0 0 0 0 0 0 0 0 0 11 0 0 0 0 0 0 0 0 1
CIN
0 0 0 0 0 0 -1 -1 0 0 0 0 0 0 0 0 0 0 0 0 0 0 0 0 -0 0 -0
0 0 0 0 0 0 -0 0 -0 0 0 0 0 0 0 0 0 0 0 0 0 0 0 0 0 0 -3
0 0 0 0 0 0 -2 0 0 -0 0 0 0 0 0 0 0 0 0 0 0 0 0 0 0 0 -10
-3 -6 -1 -2 -0 -2 0 0 0 -0 0 -0 0 0 0 0 -0 0 0 0 0 0 0 0 0 0 -0
-4 -7 -1 -4 -2 0 0 0 0 0 -1 0 -3 -1 0 -0 -0 0 0 0 0 0 0 -1 -0 0 0
-0 -0 -2 -5 -7 0 0 -3 -1 0 -0 0 -2 0 -0 -0 0 0 0 0 0 0 0 0 0 0 0
0 -0 -1 -2 -11 -1 -0 -0 -2 -1 -2 -0 -2 -3 -2 -0 0 0 0 0 -0 0 0 0 0 0 0
-3 -0 -1 -1 -0 -0 -3 -2 -2 -3 -2 -0 -2 0 -1 -1 0 0 0 0 0 0 -0 0 0 0 0
-0 0 0 0 -0 -0 -0 -0 -1 -2 -4 -2 0 -3 -4 -2 -1 0 0 0 0 0 0 0 -1 -3 0
0 0 0 0 0 -2 -1 -0 -1 -2 0 -0 -1 -1 -1 0 0 0 0 0 0 0 0 0 0 -0 0
0 0 0 -2 -1 -2 -1 -1 -0 -1 0 -1 -0 -0 -1 0 0 -1 0 0 0 0 0 0 0 -11 0
-2 -2 -2 -3 -2 -0 -1 -0 -0 -0 -0 -0 0 -0 -0 0 -0 0 0 0 0 0 0 0 0 -0 0
-0 -2 -2 -2 0 0 0 0 0 0 0 0 0 -0 0 0 0 0 -0 0 0 0 0 0 0 0 0
-0 -1 -2 0 0 0 0 0 -0 0 0 0 0 0 0 0 0 0 0 0 0 0 0 0 0 0 0
-0 -0 -0 -0 0 0 0 0 -0 -2 -0 0 0 0 0 0 0 -0 0 0 0 0 0 0 0 0 -0
-1 -0 -0 0 0 0 0 0 0 -0 0 0 0 0 0 0 -0 0 0 0 0 0 0 0 0 0 -0
0 0 0 0 0 0 0 0 0 0 0 0 0 0 0 0 0 0 0 0 0 0 0 0 0 0 0
Wind_Speed
14 16 18 17 17 14 14 14 14 26 30 35 34 35 35 35 35 35 34 36 33 31 31 31 29 26 27
16 14 17 17 16 18 13 12 13 19 32 34 37 35 35 36 36 36 34 32 30 28 26 27 26 28 29
16 13 13 13 16 15 13 13 12 25 29 31 31 34 34 33 34 33 29 28 33 28 30 27 26 25 23
13 12 13 15 11 12 15 13 14 12 21 24 27 32 31 31 33 32 29 28 30 29 27 26 24 24 25
12 13 13 12 13 13 14 15 16 14 11 14 12 13 15 23 23 28 28 27 27 30 26 26 26 27 24
13 16 19 16 12 13 15 16 17 6 12 15 12 14 12 11 26 30 28 29 27 30 27 25 27 29 27
19 18 18 13 16 17 15 13 15 14 14 16 11 10 11 14 26 28 31 29 32 28 23 25 24 25 24
17 16 16 17 18 15 17 17 14 11 11 16 9 14 12 11 24 31 32 30 20 20 26 26 25 25 25
27 28 30 31 25 15 11 13 15 12 10 12 12 14 13 13 13 26 22 25 27 28 27 27 27 29 23
12 16 18 17 27 15 12 13 14 15 10 11 12 11 11 12 6 10 10 18 26 26 26 28 30 15 14
13 12 12 12 10 11 13 13 13 14 16 13 11 11 9 10 8 6 4 9 11 14 24 25 27 24 16
12 12 12 12 12 13 15 15 14 17 17 16 10 11 11 9 8 7 9 9 9 9 8 13 14 7 25
11 12 11 12 14 13 14 15 15 15 12 10 9 5 2 6 8 8 11 6 9 7 6 6 7 5 3
11 12 12 11 12 11 11 12 12 6 5 5 6 6 4 5 8 9 7 4 6 6 5 5 8 8 5
11 12 12 11 11 11 10 11 11 7 8 6 7 7 6 6 6 6 4 3 4 5 4 7 9 10 11
11 11 11 11 11 11 10 7 9 9 9 8 8 6 2 2 7 6 4 4 5 7 6 9 11 10 13
11 11 11 10 15 11 10 7 9 9 8 6 6 5 6 4 4 15 4 5 5 10 8 8 9 9 12
Wind_Direction
302 304 307 305 304 298 294 288 288 298 298 309 304 302 300 298 296 297 294 299 293 294 290 282 281 280 275
297 300 296 299 297 297 295 292 292 298 301 302 302 299 300 302 297 292 293 297 303 296 300 288 290 284 275
291 292 295 297 294 295 296 300 292 303 302 298 306 301 294 299 298 297 296 298 296 298 289 289 287 283 283
288 293 298 301 304 303 301 298 301 300 294 293 300 298 297 300 298 297 294 293 292 290 291 292 290 298 283
299 297 303 303 306 300 298 303 294 293 298 294 294 292 289 293 288 292 289 297 296 295 295 297 293 289 289
309 303 300 296 303 298 297 296 295 308 299 295 288 286 288 287 298 298 299 297 303 298 292 291 285 286 283
304 298 304 298 295 296 293 294 293 299 294 290 289 285 293 288 293 302 305 297 294 289 288 290 280 274 281
297 299 292 297 298 300 302 298 287 288 290 289 300 293 292 291 291 294 287 285 285 301 298 287 283 282 277
302 305 310 307 306 303 298 298 296 298 298 282 291 290 289 283 270 276 295 301 300 296 286 277 274 273 272
312 305 304 295 300 298 296 293 294 295 290 287 290 293 293 280 260 294 281 281 293 292 288 280 270 256 246
308 304 303 301 302 297 294 290 289 286 285 290 290 288 278 291 273 276 257 288 288 286 283 281 279 240 218
305 305 311 309 304 299 293 286 278 278 284 280 276 280 284 292 297 308 299 291 284 288 296 306 315 326 201
307 308 306 302 300 298 297 293 292 288 289 301 310 310 275 291 293 302 311 308 303 310 317 333 349 325 323
305 306 305 306 306 307 308 307 307 300 290 277 306 305 297 270 288 290 292 293 323 322 326 15 13 7 23
308 308 309 310 310 313 307 316 318 324 326 317 311 283 256 271 312 334 317 306 331 341 357 46 33 25 44
310 310 310 314 313 317 316 325 324 323 325 330 335 336 325 243 333 337 332 341 7 15 23 60 55 36 55
309 311 312 309 318 311 311 321 321 320 323 335 345 5 11 9 317 2 5 6 45 49 39 47 66 62 68